TimeMST,TemperatureF,Dew PointF,Humidity,Sea Level PressureIn,VisibilityMPH,Wind Direction,Wind SpeedMPH,Gust SpeedMPH,PrecipitationIn,Events,Conditions,WindDirDegrees,DateUTC
12:57 AM,81.0,46.9,30,29.66,10.0,WNW,3.5,-,N/A,,Scattered Clouds,300,2013-06-24 07:57:00
1:57 AM,82.0,45.0,27,29.67,10.0,Calm,Calm,-,N/A,,Scattered Clouds,0,2013-06-24 08:57:00
2:57 AM,81.0,39.0,22,29.67,10.0,Calm,Calm,-,N/A,,Scattered Clouds,0,2013-06-24 09:57:00
3:57 AM,80.1,39.9,24,29.67,10.0,South,3.5,-,N/A,,Scattered Clouds,190,2013-06-24 10:57:00
4:57 AM,80.1,50.0,35,29.69,10.0,SSE,3.5,-,N/A,,Scattered Clouds,160,2013-06-24 11:57:00
5:57 AM,78.1,55.9,46,29.70,10.0,SSE,4.6,-,N/A,,Scattered Clouds,160,2013-06-24 12:57:00
6:57 AM,79.0,59.0,50,29.73,10.0,South,10.4,-,N/A,,Mostly Cloudy,170,2013-06-24 13:57:00
7:57 AM,82.9,59.0,44,29.75,10.0,South,8.1,-,N/A,,Mostly Cloudy,180,2013-06-24 14:57:00
8:57 AM,86.0,51.1,30,29.77,10.0,East,4.6,-,N/A,,Mostly Cloudy,100,2013-06-24 15:57:00
9:57 AM,90.0,44.1,20,29.77,10.0,East,4.6,-,N/A,,Mostly Cloudy,80,2013-06-24 16:57:00
10:57 AM,91.9,42.1,18,29.77,10.0,ESE,6.9,-,N/A,,Mostly Cloudy,120,2013-06-24 17:57:00
11:57 AM,95.0,41.0,15,29.76,10.0,SE,5.8,-,N/A,,Mostly Cloudy,140,2013-06-24 18:57:00
12:57 PM,96.1,39.0,14,29.75,10.0,Calm,Calm,-,N/A,,Mostly Cloudy,0,2013-06-24 19:57:00
1:57 PM,99.0,33.1,10,29.73,10.0,Variable,3.5,-,N/A,,Mostly Cloudy,0,2013-06-24 20:57:00
2:57 PM,99.0,41.0,14,29.71,10.0,ESE,3.5,-,N/A,,Mostly Cloudy,120,2013-06-24 21:57:00
3:57 PM,100.0,37.9,12,29.70,10.0,Calm,Calm,-,N/A,,Scattered Clouds,0,2013-06-24 22:57:00
4:57 PM,102.0,32.0,9,29.68,10.0,West,8.1,-,N/A,,Mostly Cloudy,270,2013-06-24 23:57:00
5:57 PM,100.0,32.0,9,29.68,10.0,West,8.1,-,N/A,,Mostly Cloudy,280,2013-06-25 00:57:00
6:57 PM,96.1,37.0,13,29.69,6.0,NW,15.0,21.9,N/A,,Haze,310,2013-06-25 01:57:00
7:57 PM,91.9,44.1,19,29.70,8.0,NW,17.3,-,N/A,,Mostly Cloudy,310,2013-06-25 02:57:00
8:57 PM,89.1,45.0,22,29.72,10.0,WNW,10.4,-,N/A,,Mostly Cloudy,290,2013-06-25 03:57:00
9:57 PM,87.1,46.0,24,29.75,10.0,WNW,8.1,-,N/A,,Mostly Cloudy,290,2013-06-25 04:57:00
10:57 PM,84.9,48.0,28,29.76,10.0,WNW,3.5,-,N/A,,Mostly Cloudy,300,2013-06-25 05:57:00
11:57 PM,82.9,48.9,31,29.77,10.0,NW,4.6,-,N/A,,Scattered Clouds,310,2013-06-25 06:57:00